RH
28 30 29 28 26 29 32 34 46 46 46 43 43 40 38 30 21 17 16 27 44 18 6 10 7 4 6 6 9 12 20 5 2 2 2 2 4 1 1 2 4 4 4
30 29 28 28 28 31 30 35 38 51 52 47 41 39 39 40 45 45 40 46 47 49 15 17 11 3 4 8 10 12 13 2 2 2 3 3 2 1 1 1 2 2 10
53 51 45 32 32 26 27 31 35 43 50 57 57 47 41 44 43 36 41 50 52 51 34 25 9 2 2 8 10 9 3 2 3 4 5 5 4 2 4 1 3 5 2
26 28 30 30 26 23 24 34 40 40 43 55 67 62 50 49 47 38 38 47 51 52 47 33 12 2 3 5 4 3 4 4 6 6 7 7 5 3 33 1 2 2 2
11 11 12 13 20 19 21 27 30 35 41 50 61 74 73 65 57 43 41 45 52 65 62 40 25 9 4 9 12 9 10 8 7 8 7 7 6 6 8 3 2 2 2
12 13 12 12 16 24 25 21 23 31 34 46 55 68 80 75 76 77 56 54 51 52 69 66 52 8 30 21 37 29 28 21 9 7 7 7 30 19 50 3 2 2 2
8 10 12 15 16 13 14 18 24 34 41 40 49 56 75 87 76 80 85 70 56 47 56 70 69 46 23 33 36 39 26 14 8 6 6 6 14 10 6 4 3 3 3
6 7 8 11 14 19 19 19 28 51 62 70 69 72 68 78 88 81 80 85 88 54 58 56 75 76 56 38 36 54 33 13 9 7 6 5 6 6 6 5 4 4 3
10 10 8 7 9 12 16 24 23 30 88 95 97 89 77 78 77 87 89 92 84 82 50 46 62 85 88 69 42 42 39 18 11 10 9 7 7 6 7 6 5 4 4
18 15 12 10 9 8 9 16 22 34 42 82 91 98 95 92 78 64 62 66 81 77 71 63 45 65 90 97 92 57 23 19 14 12 13 13 11 9 8 7 6 6 5
27 23 17 14 12 11 10 12 11 12 15 34 55 84 96 96 94 80 58 52 58 66 77 77 79 56 61 91 92 94 80 20 17 14 13 15 15 15 16 13 13 9 9
30 35 29 23 16 13 12 12 12 13 13 16 19 29 43 56 90 92 97 94 56 58 71 80 85 85 77 67 97 97 90 88 24 17 15 14 15 16 18 19 19 21 19
32 35 42 39 26 18 13 12 13 14 14 16 19 20 19 26 35 55 94 93 96 77 60 63 77 90 88 81 72 88 94 100 95 21 22 16 15 15 16 18 19 21 22
36 38 43 46 48 41 26 17 12 14 14 13 13 16 19 18 20 30 34 71 97 91 86 95 82 72 94 90 86 80 85 97 97 95 36 16 18 17 16 15 16 17 19
38 42 49 55 57 57 52 36 23 14 12 16 16 14 12 14 16 17 20 25 31 57 94 95 92 97 88 91 85 84 79 82 95 95 96 76 36 18 16 16 16 14 15
39 46 60 66 64 63 62 58 42 27 18 12 13 17 17 15 13 12 13 14 14 14 14 17 30 66 98 94 79 99 98 71 86 96 85 87 67 45 31 24 17 14 14
36 45 58 80 84 84 76 70 60 45 35 22 14 11 14 16 17 15 14 12 12 11 11 10 11 19 79 97 95 97 96 100 100 96 95 90 98 95 95 97 65 54 17
46 49 59 72 86 94 88 81 80 65 56 49 33 19 14 12 13 14 15 15 15 15 15 14 12 10 17 19 22 87 87 85 88 93 96 96 94 96 95 94 96 95 67
43 51 58 72 97 100 100 99 97 95 95 93 78 63 29 18 16 15 13 12 12 12 13 14 14 14 14 13 13 13 14 17 24 58 56 88 99 98 96 98 76 80 87
36 52 68 80 99 100 100 100 100 100 99 98 98 98 94 47 26 17 17 16 14 12 11 10 10 10 10 10 11 12 13 16 16 26 30 49 67 92 94 97 98 99 93
30 30 53 87 99 99 100 100 100 100 100 100 100 99 98 94 67 38 25 22 19 16 16 16 15 16 19 19 18 18 18 14 11 14 16 22 36 51 57 73 93 98 100
26 32 51 91 93 93 98 100 100 100 100 100 100 100 100 100 95 92 64 43 40 35 31 28 27 28 27 27 26 26 25 24 25 14 15 14 18 22 32 45 73 93 97
23 44 73 99 98 100 100 100 100 100 100 100 94 97 100 100 100 100 99 82 55 49 45 41 37 34 32 32 28 28 28 31 32 28 23 14 13 15 19 64 78 70 91
23 33 67 64 96 93 98 97 95 100 100 99 99 96 100 100 100 91 98 99 94 77 51 42 37 32 28 27 24 21 19 19 21 26 26 25 16 15 30 63 81 99 89
22 25 34 43 72 89 88 85 93 100 99 99 100 100 98 100 99 96 100 100 100 100 83 52 40 34 31 26 20 17 16 14 14 16 18 24 27 27 81 86 76 68 70
21 29 33 41 75 99 99 99 94 91 98 97 98 99 100 98 89 81 83 90 96 99 100 95 67 47 42 30 20 15 12 10 9 9 12 28 26 25 49 97 48 88 62
Wind_Speed
19 19 19 19 20 20 21 21 22 21 19 17 16 16 16 17 17 18 18 16 15 14 13 13 14 15 16 16 18 17 16 12 11 10 10 10 9 11 13 16 16 16 15
21 21 22 22 23 23 24 24 23 23 24 21 19 19 18 18 18 19 20 18 17 15 14 14 15 15 15 14 15 16 16 13 13 13 10 10 8 8 10 11 12 11 10
26 27 27 27 26 26 26 27 27 26 26 25 23 21 20 20 20 20 21 22 21 18 16 14 14 14 15 14 15 16 15 15 15 14 13 12 9 7 7 8 9 9 8
24 26 27 28 29 30 29 28 28 28 28 27 26 25 24 23 22 22 22 23 23 22 18 16 14 14 15 16 16 16 16 16 16 15 14 14 12 10 8 9 9 10 10
24 24 25 28 29 31 32 32 32 31 31 30 29 27 27 25 24 23 24 24 24 23 21 19 18 17 17 18 17 17 18 18 17 17 16 14 14 14 13 14 12 12 12
24 25 25 27 28 29 32 33 33 34 35 34 33 32 30 29 26 25 25 25 24 24 23 22 22 20 22 21 20 18 19 19 18 18 18 17 15 15 14 15 15 14 14
25 26 26 27 28 28 30 32 34 35 35 37 39 36 33 31 30 28 26 25 25 25 25 25 26 24 25 24 22 20 20 19 19 19 19 19 19 18 17 17 17 16 16
23 24 25 26 27 28 29 29 32 35 35 38 41 40 37 34 32 31 30 27 26 27 27 29 29 27 26 27 26 23 21 20 20 19 19 20 20 20 20 19 19 18 18
24 25 24 26 27 29 31 30 30 31 34 41 37 45 40 38 37 34 32 31 30 30 29 30 31 30 29 28 30 28 24 24 23 22 20 20 19 19 20 20 19 19 19
30 29 28 27 28 29 31 33 35 32 35 41 40 38 40 41 40 40 38 36 34 34 32 30 31 32 32 31 31 32 31 30 28 25 25 23 21 21 20 19 19 19 18
33 32 31 30 31 32 33 34 35 36 37 39 36 34 33 28 35 39 39 38 39 39 38 35 33 32 34 31 34 35 34 35 33 31 30 28 27 25 23 22 22 21 20
39 35 34 35 35 36 36 37 38 38 39 40 39 36 36 34 34 33 37 34 39 40 41 40 38 36 35 36 30 39 43 41 39 38 35 34 31 30 28 27 25 24 25
42 42 39 38 39 40 40 40 41 41 42 41 41 40 38 38 36 38 39 33 39 41 43 42 42 40 40 38 42 40 40 34 38 39 41 40 37 35 33 32 30 30 28
44 42 42 42 42 43 43 44 44 45 44 44 43 43 43 41 41 42 42 41 40 41 41 39 41 45 42 42 43 42 43 30 30 46 45 43 38 38 38 36 34 34 32
50 49 46 43 42 44 44 45 47 46 47 47 46 45 43 44 44 44 44 45 46 48 47 43 38 39 47 46 46 45 46 50 50 39 34 46 48 46 43 42 40 39 37
55 54 52 49 47 45 45 47 49 50 49 49 49 49 47 46 45 45 46 46 47 47 46 41 42 44 40 37 46 50 53 57 51 39 40 44 50 47 47 48 45 44 43
58 56 55 48 46 44 45 48 50 51 52 51 50 49 49 49 48 48 47 47 46 45 44 41 41 42 41 38 43 56 35 55 58 38 39 50 51 51 58 46 53 51 47
59 59 54 50 46 45 45 50 53 53 53 52 52 51 50 49 50 50 50 50 50 47 45 41 40 42 45 50 47 50 53 49 50 42 30 35 50 44 48 48 46 47 52
53 52 52 48 45 46 49 51 53 53 54 53 53 52 51 51 51 51 51 51 51 51 50 48 45 45 45 46 46 44 39 36 38 39 32 43 28 25 40 49 55 48 53
49 47 44 44 45 45 46 50 54 55 55 55 56 57 54 51 52 51 51 51 51 51 51 50 49 47 47 47 46 44 40 37 33 32 34 36 39 42 32 27 37 44 49
51 49 44 43 44 42 41 44 46 46 46 48 52 55 57 55 52 52 52 52 52 51 51 51 50 48 47 47 46 43 41 37 33 33 31 32 32 32 29 32 34 33 38
47 42 42 41 40 39 40 37 37 40 42 44 45 46 46 56 59 58 52 49 51 52 52 52 52 51 49 49 48 46 42 40 36 35 34 33 32 33 32 31 33 32 31
45 39 40 40 35 37 41 42 41 42 41 40 41 42 46 50 50 54 60 52 49 50 50 51 52 52 51 48 48 48 45 41 39 39 38 36 35 33 37 37 31 35 39
46 40 41 44 43 45 42 46 47 46 46 44 41 40 41 44 49 50 53 59 58 55 51 51 51 52 54 54 51 49 46 42 41 39 39 39 39 37 38 40 44 36 36
49 45 44 46 48 48 50 52 53 54 51 46 42 42 42 43 44 44 47 50 56 59 57 53 52 53 55 56 54 51 48 44 42 40 41 42 42 40 43 42 43 41 43
51 46 44 43 46 47 46 49 51 53 53 50 47 45 44 46 46 46 46 47 49 49 56 60 60 53 50 50 51 51 48 45 41 41 41 44 46 46 47 49 46 50 48
Wind_Direction
288 286 283 280 280 280 277 279 279 280 279 275 272 266 258 252 251 254 257 259 263 265 259 260 260 244 237 238 237 235 243 255 247 242 248 260 265 254 243 242 244 245 243
280 282 281 277 275 275 277 277 273 275 273 272 266 263 261 259 255 254 257 259 256 261 260 264 268 255 236 237 230 228 239 240 243 245 246 255 268 263 242 233 232 232 227
278 278 278 277 274 271 272 273 273 272 270 270 268 262 258 257 257 254 253 255 256 252 250 252 255 250 235 228 223 228 234 236 239 247 251 252 254 256 239 213 202 197 197
281 277 276 273 271 268 264 265 265 266 267 266 264 260 256 250 250 253 254 253 253 256 256 252 247 239 227 226 228 232 238 246 247 248 248 246 239 234 220 223 212 210 211
292 285 278 271 268 266 266 263 261 260 262 263 263 261 257 252 248 246 246 248 248 247 249 252 249 233 225 224 230 239 244 246 248 246 244 240 238 233 230 229 225 219 219
296 290 284 277 272 267 265 263 262 261 259 260 259 257 254 252 248 246 242 241 242 244 244 244 246 238 230 233 234 232 236 243 245 245 244 243 236 233 222 233 230 226 227
298 295 291 286 282 275 267 265 262 261 260 258 257 255 254 251 249 247 246 243 242 238 240 240 242 242 234 235 239 236 235 236 239 241 240 238 236 235 236 233 233 232 231
297 292 287 284 280 279 276 269 265 262 260 258 254 252 251 252 250 249 248 246 243 240 237 236 238 240 240 235 239 237 238 237 235 235 236 236 235 236 235 233 231 230 233
295 291 285 281 278 275 274 273 269 267 263 256 245 251 250 249 248 247 247 247 245 244 241 239 236 236 238 237 237 237 236 236 235 232 231 231 230 231 231 234 234 232 231
297 292 285 279 275 271 269 268 268 266 264 270 269 239 249 248 247 251 248 246 247 248 247 244 241 237 236 237 240 239 234 236 235 233 231 231 227 228 229 229 231 232 230
294 285 279 276 272 271 268 264 264 266 266 268 274 277 279 264 248 248 249 247 245 245 247 247 245 244 239 237 244 241 239 235 236 235 233 232 231 228 230 231 230 230 231
295 288 281 277 270 266 264 263 261 259 259 262 265 262 264 264 264 259 253 246 246 247 247 245 245 244 244 238 246 235 241 236 231 235 236 232 233 233 230 232 234 234 236
295 293 286 275 271 268 263 259 259 258 258 256 257 260 258 258 258 256 261 255 247 247 248 248 249 246 245 244 243 248 245 254 240 229 236 238 234 235 234 233 233 236 236
293 290 286 284 278 272 268 265 259 258 257 257 254 254 254 253 253 255 257 260 254 254 248 246 245 250 248 249 250 253 249 236 226 230 229 237 241 241 239 238 237 238 239
294 294 289 282 277 275 271 266 263 260 257 255 256 253 251 253 251 250 253 256 258 261 259 262 259 256 249 250 251 254 250 248 253 257 248 233 234 243 244 244 242 240 241
299 298 295 292 288 279 273 266 261 258 257 256 253 253 252 249 251 252 250 251 253 256 260 260 260 258 248 249 254 247 239 245 248 252 245 244 237 239 237 246 247 245 242
297 298 298 294 289 283 274 268 263 259 257 255 254 252 250 250 249 249 250 251 252 253 255 255 253 253 259 239 226 230 227 245 237 232 236 233 238 243 241 242 241 247 243
300 301 299 295 289 283 275 268 264 260 256 255 254 253 251 249 248 248 248 249 252 253 254 252 250 250 250 258 259 253 272 278 278 282 271 241 249 253 249 254 244 240 246
302 301 299 296 291 284 277 270 266 262 256 251 251 252 253 251 250 249 248 247 249 251 252 252 249 249 251 255 259 262 264 267 267 278 280 277 223 238 243 245 248 245 245
303 301 298 293 290 290 287 281 275 266 260 255 251 248 247 251 251 250 248 248 246 247 250 251 251 248 249 254 258 262 265 264 264 264 267 273 280 274 257 250 246 246 248
306 304 296 290 288 289 288 290 290 289 283 272 263 257 250 244 248 250 249 247 247 248 248 248 250 251 249 252 254 256 260 259 260 257 255 260 266 264 266 269 263 255 246
309 302 292 289 291 295 293 291 288 288 287 286 283 280 276 259 248 244 246 249 248 249 250 250 251 252 253 253 256 258 258 259 256 254 253 251 251 258 254 249 260 262 242
309 298 290 287 280 284 287 288 285 280 278 277 273 273 274 272 266 261 247 244 248 249 249 250 251 252 254 255 256 258 257 256 253 250 251 249 249 246 244 243 247 255 253
309 298 286 282 278 271 272 277 277 276 277 279 275 270 272 270 265 261 256 246 243 247 251 251 252 254 256 260 261 259 258 254 250 249 248 248 247 245 236 235 235 237 243
309 304 296 287 283 282 281 274 272 276 277 275 273 268 264 262 260 257 255 254 251 247 244 249 251 252 253 255 258 259 258 256 254 248 245 244 246 243 238 235 234 237 245
310 305 300 292 284 282 280 278 278 278 278 275 272 267 262 262 262 260 256 253 250 249 247 246 245 246 250 252 254 254 254 254 253 250 244 239 242 241 239 240 243 237 237